Hourly Weather Porto Alegre

Today, 7 August, Friday

Time Temperature Precipitation Wind Pressure Humidity
00:00 +17°C° 0 mm 0 mps 765 mmHg 71%
01:00 +17°C° 0 mm 0 mps 764 mmHg 73%
02:00 +17°C° 0 mm 0 mps 764 mmHg 75%
03:00 +18°C° 0 mm 1 mps 764 mmHg 76%
04:00 +16°C° 0 mm 0 mps 764 mmHg 78%
05:00 +16°C° 0 mm 0 mps 764 mmHg 80%
06:00 +15°C° 0 mm 0 mps 764 mmHg 81%
07:00 +16°C° 0 mm 0 mps 764 mmHg 78%
08:00 +17°C° 0 mm 0 mps 765 mmHg 75%
09:00 +20°C° 0 mm 1 mps 765 mmHg 69%
10:00 +20°C° 0 mm 0 mps 765 mmHg 62%
11:00 +22°C° 0 mm 0 mps 765 mmHg 55%
12:00 +24°C° 0 mm 0 mps 765 mmHg 48%
13:00 +24°C° 0 mm 0 mps 764 mmHg 47%
14:00 +26°C° 0 mm 1 mps 763 mmHg 47%
15:00 +26°C° 0 mm 1 mps 763 mmHg 46%
16:00 +25°C° 0 mm 2 mps 763 mmHg 52%
17:00 +23°C° 0 mm 2 mps 763 mmHg 59%
18:00 +20°C° 0 mm 2 mps 763 mmHg 66%
19:00 +20°C° 0 mm 2 mps 764 mmHg 67%
20:00 +19°C° 0 mm 2 mps 764 mmHg 69%
21:00 +19°C° 0 mm 1 mps 765 mmHg 70%
22:00 +19°C° 0 mm 1 mps 765 mmHg 71%
23:00 +18°C° 0 mm 1 mps 765 mmHg 72%

Tomorrow, 8 August, Saturday

Time Temperature Precipitation Wind Pressure Humidity
00:00 +18°C° 0 mm 1 mps 765 mmHg 73%
01:00 +16°C° 0 mm 1 mps 765 mmHg 74%
02:00 +15°C° 0 mm 0 mps 765 mmHg 74%
03:00 +15°C° 0 mm 0 mps 765 mmHg 75%
04:00 +14°C° 0 mm 0 mps 765 mmHg 76%
05:00 +14°C° 0 mm 0 mps 765 mmHg 76%
06:00 +14°C° 0 mm 0 mps 764 mmHg 77%
07:00 +15°C° 0 mm 0 mps 765 mmHg 74%
08:00 +16°C° 0 mm 0 mps 765 mmHg 70%
09:00 +17°C° 0 mm 0 mps 765 mmHg 67%
10:00 +18°C° 0 mm 0 mps 765 mmHg 60%
11:00 +20°C° 0 mm 0 mps 765 mmHg 54%
12:00 +22°C° 0 mm 0 mps 765 mmHg 48%
13:00 +25°C° 0 mm 1 mps 764 mmHg 47%
14:00 +25°C° 0 mm 1 mps 764 mmHg 45%
15:00 +25°C° 0 mm 1 mps 763 mmHg 44%
16:00 +24°C° 0 mm 2 mps 763 mmHg 51%
17:00 +21°C° 0 mm 2 mps 763 mmHg 59%
18:00 +20°C° 0 mm 2 mps 763 mmHg 67%
19:00 +19°C° 0 mm 2 mps 763 mmHg 70%
20:00 +18°C° 0 mm 2 mps 764 mmHg 73%
21:00 +17°C° 0 mm 2 mps 764 mmHg 76%
22:00 +18°C° 0 mm 1 mps 764 mmHg 78%
23:00 +16°C° 0 mm 1 mps 764 mmHg 79%

Day after tomorrow, 9 August, Sunday

Time Temperature Precipitation Wind Pressure Humidity
00:00 +16°C° 0 mm 1 mps 763 mmHg 81%
01:00 +16°C° 0 mm 1 mps 763 mmHg 82%
02:00 +14°C° 0 mm 0 mps 763 mmHg 83%
03:00 +14°C° 0 mm 0 mps 763 mmHg 84%
04:00 +14°C° 0 mm 0 mps 763 mmHg 83%
05:00 +14°C° 0 mm 0 mps 762 mmHg 83%
06:00 +14°C° 0 mm 0 mps 762 mmHg 82%
07:00 +15°C° 0 mm 0 mps 762 mmHg 77%
08:00 +16°C° 0 mm 0 mps 763 mmHg 72%
09:00 +17°C° 0 mm 0 mps 763 mmHg 66%
10:00 +19°C° 0 mm 0 mps 762 mmHg 60%
11:00 +23°C° 0 mm 1 mps 762 mmHg 54%
12:00 +26°C° 0 mm 1 mps 761 mmHg 47%
13:00 +26°C° 0 mm 1 mps 761 mmHg 46%
14:00 +27°C° 0 mm 1 mps 760 mmHg 46%
15:00 +28°C° 0 mm 1 mps 759 mmHg 45%
16:00 +26°C° 0 mm 1 mps 759 mmHg 50%
17:00 +25°C° 0 mm 1 mps 759 mmHg 55%
18:00 +23°C° 0 mm 1 mps 759 mmHg 61%
19:00 +23°C° 0 mm 1 mps 759 mmHg 64%
20:00 +22°C° 0 mm 1 mps 759 mmHg 67%
21:00 +21°C° 0 mm 1 mps 759 mmHg 70%
22:00 +21°C° 0 mm 1 mps 759 mmHg 71%
23:00 +20°C° 0 mm 1 mps 758 mmHg 72%

10 August, Monday

Time Temperature Precipitation Wind Pressure Humidity
00:00 +20°C° 0 mm 1 mps 758 mmHg 73%
01:00 +20°C° 0 mm 1 mps 758 mmHg 73%
02:00 +19°C° 0 mm 1 mps 757 mmHg 73%
03:00 +19°C° 0 mm 1 mps 757 mmHg 73%
04:00 +19°C° 0 mm 1 mps 756 mmHg 73%
05:00 +18°C° 0 mm 1 mps 756 mmHg 74%
06:00 +18°C° 0 mm 1 mps 756 mmHg 74%
07:00 +18°C° 0 mm 2 mps 756 mmHg 70%
08:00 +19°C° 0 mm 2 mps 756 mmHg 66%
09:00 +20°C° 0 mm 2 mps 756 mmHg 63%
10:00 +24°C° 0 mm 3 mps 756 mmHg 57%
11:00 +26°C° 0 mm 3 mps 755 mmHg 51%
12:00 +28°C° 0 mm 3 mps 755 mmHg 45%
13:00 +29°C° 0 mm 4 mps 754 mmHg 43%
14:00 +30°C° 0 mm 4 mps 754 mmHg 42%
15:00 +30°C° 0 mm 4 mps 754 mmHg 41%
16:00 +29°C° 0 mm 3 mps 753 mmHg 46%
17:00 +28°C° 0 mm 3 mps 753 mmHg 50%
18:00 +26°C° 0 mm 2 mps 753 mmHg 55%
19:00 +26°C° 0 mm 2 mps 753 mmHg 58%
20:00 +25°C° 0 mm 2 mps 754 mmHg 61%
21:00 +24°C° 0 mm 2 mps 754 mmHg 64%
22:00 +23°C° 0 mm 2 mps 754 mmHg 66%
23:00 +23°C° 0 mm 2 mps 754 mmHg 68%

11 August, Tuesday

Time Temperature Precipitation Wind Pressure Humidity
00:00 +23°C° 0 mm 2 mps 754 mmHg 70%
01:00 +21°C° 0 mm 3 mps 755 mmHg 73%
02:00 +20°C° 0 mm 5 mps 756 mmHg 77%
03:00 +19°C° 0 mm 6 mps 756 mmHg 80%
04:00 +17°C° 0 mm 5 mps 757 mmHg 74%
05:00 +17°C° 0 mm 4 mps 757 mmHg 67%
06:00 +17°C° 0 mm 3 mps 758 mmHg 61%
07:00 +17°C° 0 mm 3 mps 759 mmHg 61%
08:00 +16°C° 0 mm 3 mps 760 mmHg 61%
09:00 +16°C° 0 mm 3 mps 760 mmHg 61%
10:00 +14°C° 0 mm 3 mps 761 mmHg 59%
11:00 +14°C° 0 mm 3 mps 761 mmHg 56%
12:00 +14°C° 0 mm 3 mps 761 mmHg 54%
13:00 +13°C° 0 mm 3 mps 761 mmHg 54%
14:00 +13°C° 0 mm 3 mps 761 mmHg 55%
15:00 +12°C° 0 mm 3 mps 760 mmHg 56%
16:00 +12°C° 0 mm 3 mps 760 mmHg 59%
17:00 +11°C° 0 mm 3 mps 761 mmHg 62%
18:00 +10°C° 0 mm 3 mps 761 mmHg 66%
19:00 +9°C° 0.9 mm 3 mps 761 mmHg 72%
20:00 +9°C° 0.9 mm 2 mps 761 mmHg 78%
21:00 +8°C° 0.9 mm 2 mps 762 mmHg 85%
22:00 +8°C° 3.5 mm 2 mps 762 mmHg 87%
23:00 +8°C° 3.5 mm 3 mps 761 mmHg 88%

12 August, Wednesday

Time Temperature Precipitation Wind Pressure Humidity
00:00 +8°C° 3.5 mm 3 mps 761 mmHg 90%
01:00 +8°C° 3.6 mm 3 mps 761 mmHg 91%
02:00 +8°C° 3.6 mm 3 mps 760 mmHg 91%
03:00 +8°C° 3.6 mm 3 mps 760 mmHg 91%
04:00 +8°C° 4.7 mm 3 mps 759 mmHg 92%
05:00 +8°C° 4.7 mm 4 mps 759 mmHg 92%
06:00 +8°C° 4.7 mm 4 mps 759 mmHg 93%
07:00 +8°C° 5.4 mm 4 mps 759 mmHg 93%
08:00 +10°C° 5.4 mm 4 mps 760 mmHg 93%
09:00 +10°C° 5.4 mm 4 mps 760 mmHg 94%
10:00 +10°C° 2.4 mm 4 mps 759 mmHg 93%
11:00 +11°C° 2.4 mm 3 mps 759 mmHg 92%
12:00 +12°C° 2.4 mm 3 mps 759 mmHg 92%
13:00 +12°C° 1.5 mm 3 mps 758 mmHg 92%
14:00 +12°C° 1.5 mm 3 mps 757 mmHg 93%
15:00 +12°C° 1.5 mm 3 mps 756 mmHg 94%
16:00 +13°C° 0.6 mm 2 mps 756 mmHg 94%
17:00 +13°C° 0.6 mm 2 mps 755 mmHg 94%
18:00 +14°C° 0.6 mm 2 mps 755 mmHg 94%
19:00 +14°C° 0.4 mm 2 mps 755 mmHg 94%
20:00 +14°C° 0.4 mm 1 mps 755 mmHg 94%
21:00 +14°C° 0.4 mm 1 mps 754 mmHg 94%
22:00 +14°C° 1.3 mm 1 mps 754 mmHg 94%
23:00 +14°C° 1.3 mm 1 mps 754 mmHg 94%
Show more